| time (UTC) | temp C | wind direction | speed KPH | gust KPH | rain 1hr cm | rain 24hr cm | rain mn cm | humidity % | barometer mb |
| 20260504222445 | 27 | 220 | 11.3 | 29.0 | 0.00 | 0.00 | 0.00 | 60 | 1007.6 |
| 20260504221447 | 27 | 155 | 11.3 | 25.7 | 0.00 | 0.00 | 0.00 | 60 | 1007.7 |
| 20260504220509 | 27 | 207 | 9.7 | 37.0 | 0.00 | 0.00 | 0.00 | 60 | 1007.8 |
| 20260504215502 | 27 | 157 | 12.9 | 37.0 | 0.00 | 0.00 | 0.00 | 59 | 1007.8 |
| 20260504214442 | 27 | 180 | 11.3 | 30.6 | 0.00 | 0.00 | 0.00 | 60 | 1007.8 |
| 20260504213422 | 27 | 175 | 14.5 | 30.6 | 0.00 | 0.00 | 0.00 | 60 | 1007.9 |
| 20260504212433 | 27 | 164 | 11.3 | 29.0 | 0.00 | 0.00 | 0.00 | 59 | 1007.9 |
| 20260504210331 | 28 | 148 | 8.0 | 29.0 | 0.00 | 0.00 | 0.00 | 59 | 1008.3 |
| 20260504205328 | 27 | 163 | 12.9 | 32.2 | 0.00 | 0.00 | 0.00 | 58 | 1008.5 |
| 20260504204305 | 27 | 138 | 11.3 | 32.2 | 0.00 | 0.00 | 0.00 | 58 | 1008.6 |
| 20260504203308 | 27 | 225 | 11.3 | 22.5 | 0.00 | 0.00 | 0.00 | 59 | 1008.8 |
| 20260504202315 | 28 | 152 | 9.7 | 29.0 | 0.00 | 0.00 | 0.00 | 59 | 1009.0 |
| 20260504200114 | 27 | 207 | 12.9 | 24.1 | 0.00 | 0.00 | 0.00 | 58 | 1009.3 |
| 20260504195139 | 28 | 194 | 8.0 | 24.1 | 0.00 | 0.00 | 0.00 | 58 | 1009.5 |
| 20260504194134 | 27 | 162 | 8.0 | 27.4 | 0.00 | 0.00 | 0.00 | 59 | 1009.8 |
| 20260504193113 | 27 | 232 | 8.0 | 27.4 | 0.00 | 0.00 | 0.00 | 59 | 1009.8 |
| 20260504192114 | 26 | 192 | 6.4 | 32.2 | 0.00 | 0.00 | 0.00 | 63 | 1010.0 |
| 20260504191123 | 26 | 172 | 11.3 | 32.2 | 0.00 | 0.00 | 0.00 | 61 | 1010.2 |
| 20260504190148 | 26 | 174 | 9.7 | 27.4 | 0.00 | 0.00 | 0.00 | 62 | 1010.3 |
| 20260504185140 | 26 | 192 | 12.9 | 29.0 | 0.00 | 0.00 | 0.00 | 61 | 1010.3 |
| 20260504184114 | 26 | 213 | 11.3 | 29.0 | 0.00 | 0.00 | 0.00 | 61 | 1010.5 |
| 20260504181953 | 26 | 172 | 9.7 | 24.1 | 0.00 | 0.00 | 0.00 | 61 | 1010.9 |
| 20260504181003 | 25 | 196 | 8.0 | 24.1 | 0.00 | 0.00 | 0.00 | 63 | 1011.0 |
| 20260504180015 | 25 | 221 | 8.0 | 25.7 | 0.00 | 0.00 | 0.00 | 64 | 1011.1 |
| 20260504174950 | 25 | 195 | 9.7 | 30.6 | 0.00 | 0.00 | 0.00 | 63 | 1011.1 |
| 20260504173941 | 25 | 188 | 9.7 | 30.6 | 0.00 | 0.00 | 0.00 | 66 | 1011.3 |
| 20260504172956 | 25 | 182 | 9.7 | 27.4 | 0.00 | 0.00 | 0.00 | 66 | 1011.7 |
| 20260504171932 | 24 | 149 | 9.7 | 27.4 | 0.00 | 0.00 | 0.00 | 67 | 1011.9 |
| 20260504150437 | 20 | 209 | 8.0 | 20.9 | 0.00 | 0.00 | 0.00 | 77 | 1012.7 |
| 20260504141240 | 20 | 167 | 6.4 | 24.1 | 0.00 | 0.00 | 0.00 | 76 | 1012.6 |
| 20260504140259 | 19 | 140 | 9.7 | 24.1 | 0.00 | 0.00 | 0.00 | 77 | 1012.7 |
| 20260504080104 | 17 | 163 | 4.8 | 14.5 | 0.00 | 0.00 | 0.00 | 78 | 1013.3 |
| 20260504050641 | 18 | 171 | 4.8 | 16.1 | 0.00 | 0.00 | 0.00 | 68 | 1015.5 |
| 20260504045636 | 18 | 151 | 4.8 | 14.5 | 0.00 | 0.00 | 0.00 | 67 | 1015.5 |
| 20260504044632 | 18 | 155 | 6.4 | 12.9 | 0.00 | 0.00 | 0.00 | 66 | 1015.4 |
| 20260504042512 | 18 | 187 | 4.8 | 12.9 | 0.00 | 0.00 | 0.00 | 63 | 1015.5 |
| 20260504040352 | 19 | 149 | 6.4 | 16.1 | 0.00 | 0.00 | 0.00 | 60 | 1015.6 |
| 20260504035406 | 19 | 180 | 4.8 | 22.5 | 0.00 | 0.00 | 0.00 | 59 | 1015.7 |
| 20260504034355 | 19 | 211 | 4.8 | 22.5 | 0.00 | 0.00 | 0.00 | 57 | 1015.7 |
| 20260504033416 | 19 | 165 | 3.2 | 12.9 | 0.00 | 0.00 | 0.00 | 56 | 1015.6 |
| 20260504032346 | 20 | 184 | 4.8 | 12.9 | 0.00 | 0.00 | 0.00 | 54 | 1015.5 |
| 20260504030240 | 20 | 186 | 3.2 | 6.4 | 0.00 | 0.00 | 0.00 | 53 | 1015.5 |
| 20260504025250 | 20 | 169 | 1.6 | 8.0 | 0.00 | 0.00 | 0.00 | 53 | 1015.5 |
| 20260504024303 | 20 | 200 | 1.6 | 8.0 | 0.00 | 0.00 | 0.00 | 52 | 1015.5 |
| 20260504023313 | 20 | 174 | 3.2 | 8.0 | 0.00 | 0.00 | 0.00 | 52 | 1015.4 |
| 20260504022249 | 20 | 172 | 1.6 | 6.4 | 0.00 | 0.00 | 0.00 | 52 | 1015.5 |
| 20260504021217 | 20 | 197 | 1.6 | 8.0 | 0.00 | 0.00 | 0.00 | 51 | 1015.4 |
| 20260504020154 | 21 | 176 | 3.2 | 8.0 | 0.00 | 0.00 | 0.00 | 50 | 1015.4 |
| 20260504015157 | 21 | 177 | 1.6 | 8.0 | 0.00 | 0.00 | 0.00 | 49 | 1015.3 |
| 20260504013021 | 21 | 183 | 3.2 | 8.0 | 0.00 | 0.00 | 0.00 | 48 | 1014.9 |
| 20260504011950 | 22 | 174 | 3.2 | 8.0 | 0.00 | 0.00 | 0.00 | 46 | 1014.8 |
| 20260504005834 | 22 | 171 | 3.2 | 11.3 | 0.00 | 0.00 | 0.00 | 44 | 1014.8 |
| 20260504004845 | 23 | 182 | 3.2 | 12.9 | 0.00 | 0.00 | 0.00 | 43 | 1014.8 |
| 20260504002647 | 23 | 156 | 4.8 | 14.5 | 0.00 | 0.00 | 0.00 | 41 | 1015.0 |
| 20260504001650 | 23 | 175 | 4.8 | 17.7 | 0.00 | 0.00 | 0.00 | 40 | 1015.1 |
| 20260504000715 | 24 | 158 | 6.4 | 17.7 | 0.00 | 0.00 | 0.00 | 39 | 1015.2 |
| 20260503234641 | 25 | 182 | 6.4 | 20.9 | 0.00 | 0.00 | 0.00 | 38 | 1015.5 |
| 20260503233620 | 25 | 180 | 6.4 | 19.3 | 0.00 | 0.00 | 0.00 | 38 | 1015.6 |
| 20260503232559 | 25 | 118 | 6.4 | 19.3 | 0.00 | 0.00 | 0.00 | 37 | 1015.4 |
| 20260503231538 | 25 | 183 | 4.8 | 17.7 | 0.00 | 0.00 | 0.00 | 40 | 1015.6 |
| 20260503230536 | 25 | 148 | 8.0 | 25.7 | 0.00 | 0.00 | 0.00 | 38 | 1015.4 |
| 20260503225528 | 25 | 251 | 6.4 | 25.7 | 0.00 | 0.00 | 0.00 | 39 | 1015.4 |
| 20260503224523 | 25 | 169 | 6.4 | 17.7 | 0.00 | 0.00 | 0.00 | 40 | 1015.5 |